EDDL

Dusseldorf

Airport
ICAO code
EDDL
Summary
ICAO Region
EUR
ICAO Territory
Location

Düsseldorf,

Elevation
147 ft
Coordinates
51° 17' 22" N , 6° 46' 0" E
KCC
Metar
EDDL 280620Z AUTO 19006KT 160V220 0900 0650 R23R/1600N R23L/P2000N FG OVC001 02/02 Q1022 BECMG 1200 BR OVC003

Description

International airport serving Düsseldorf.

Climatology

Temperate Marine climate/Oceanic climate (Köppen climate classification Cfb) - Moderately cool summer and comparatively warm winter.

Runways

Designator Length Width Surface Rops
05L/23R 2700 45 CON Yes/Yes
05R/23L 3000 45 CON Yes/Yes

Airport map

Aerial View

SKYbrary Partners:

Safety knowledge contributed by: